WY1U-1 Weather Reports


Display with metric or nautical units.
time (UTC)temp
F
wind
direction
speed
MPH
gust
MPH
rain 1hr
in
rain 24hr
in
rain mn
in
humidity
%
barometer
mb
20240521212643 81 193 3.0 7.0 0.00 0.00 0.00 54 1013.8
20240521212107 81 176 2.0 7.0 0.00 0.00 0.00 55 1013.8
20240521211643 81 176 2.0 7.0 0.00 0.00 0.00 55 1013.8
20240521210643 80 187 2.0 6.0 0.00 0.00 0.00 56 1013.8
20240521205643 81 208 2.0 7.0 0.00 0.00 0.00 54 1013.8
20240521203643 80 199 3.0 8.0 0.00 0.00 0.00 56 1013.9
20240521202643 80 180 3.0 6.0 0.00 0.00 0.00 57 1013.8
20240521201643 80 189 4.0 9.0 0.00 0.00 0.00 56 1013.9
20240521200643 80 186 4.0 8.0 0.00 0.00 0.00 56 1014.0
20240521195644 80 186 4.0 11.0 0.00 0.00 0.00 56 1014.0
20240521194644 81 194 4.0 9.0 0.00 0.00 0.00 55 1014.0
20240521193643 81 180 4.0 9.0 0.00 0.00 0.00 55 1014.0
20240521191643 82 179 3.0 8.0 0.00 0.00 0.00 54 1014.2
20240521190643 82 187 3.0 7.0 0.00 0.00 0.00 55 1014.2
20240521185643 82 186 3.0 8.0 0.00 0.00 0.00 54 1014.3
20240521184643 82 201 2.0 6.0 0.00 0.00 0.00 54 1014.4
20240521183643 81 189 2.0 5.0 0.00 0.00 0.00 54 1014.4
20240521182643 80 210 3.0 7.0 0.00 0.00 0.00 55 1014.5
20240521181643 80 217 3.0 7.0 0.00 0.00 0.00 55 1014.5
20240521180643 79 181 2.0 5.0 0.00 0.00 0.00 57 1014.5
20240521175643 79 191 3.0 6.0 0.00 0.00 0.00 58 1014.6
20240521174644 79 193 3.0 6.0 0.00 0.00 0.00 57 1014.8
20240521171643 77 189 2.0 6.0 0.00 0.00 0.00 61 1015.1
20240521170643 76 206 2.0 6.0 0.00 0.00 0.00 63 1015.3
20240521165647 75 209 3.0 6.0 0.00 0.00 0.00 65 1015.5
20240521164643 76 167 1.0 4.0 0.00 0.00 0.00 63 1015.5
20240521163643 75 168 2.0 5.0 0.00 0.00 0.00 63 1015.7
20240521162643 75 195 1.0 5.0 0.00 0.00 0.00 65 1015.6
20240521161643 74 182 3.0 6.0 0.00 0.00 0.00 66 1015.8
20240521160643 73 232 2.0 5.0 0.00 0.00 0.00 68 1016.1
20240521155643 73 232 2.0 7.0 0.00 0.00 0.00 68 1016.1
20240521154643 72 181 2.0 6.0 0.00 0.00 0.00 68 1016.3
20240521152643 72 162 2.0 5.0 0.00 0.00 0.00 69 1016.3
20240521145644 68 157 1.0 5.0 0.00 0.00 0.00 75 1016.4
20240521144643 68 204 1.0 4.0 0.00 0.00 0.00 77 1016.5
20240521143643 66 162 1.0 5.0 0.00 0.00 0.00 80 1016.6
20240521142643 65 186 1.0 3.0 0.00 0.00 0.00 82 1016.8
20240521141643 64 266 1.0 3.0 0.00 0.00 0.00 84 1016.9
20240521135644 63 108 0.0 0.0 0.00 0.00 0.00 86 1017.0
20240521133643 62 233 2.0 7.0 0.00 0.00 0.00 86 1017.1
20240521132643 61 170 1.0 3.0 0.00 0.00 0.00 88 1017.0
20240521131643 61 212 1.0 5.0 0.00 0.00 0.00 89 1017.1
20240521130643 60 174 0.0 2.0 0.00 0.00 0.00 90 1017.2
20240521125643 59 186 0.0 4.0 0.00 0.00 0.00 92 1017.2
20240521124643 59 183 1.0 4.0 0.00 0.00 0.00 92 1017.2
20240521123643 58 212 1.0 6.0 0.00 0.00 0.00 92 1017.2
20240521121643 58 204 1.0 4.0 0.00 0.00 0.00 92 1017.1
20240521120643 58 187 2.0 5.0 0.00 0.00 0.00 93 1017.0
20240521115643 58 231 2.0 6.0 0.00 0.00 0.00 92 1017.1
20240521113643 57 226 1.0 4.0 0.00 0.00 0.00 93 1017.0
20240521112643 57 215 2.0 5.0 0.00 0.00 0.00 93 1016.9
20240521111643 57 191 2.0 5.0 0.00 0.00 0.00 94 1016.8
20240521110643 57 224 3.0 7.0 0.00 0.00 0.00 94 1016.8
20240521105643 57 220 1.0 4.0 0.00 0.00 0.00 94 1016.8
20240521104643 57 185 0.0 3.0 0.00 0.00 0.00 94 1016.7
20240521103645 57 188 1.0 4.0 0.00 0.00 0.00 95 1016.8
20240521102643 56 176 0.0 2.0 0.00 0.00 0.00 95 1016.6
20240521101643 56 205 1.0 4.0 0.00 0.00 0.00 94 1016.6
20240521100643 56 215 0.0 4.0 0.00 0.00 0.00 95 1016.5
20240521095643 56 0 0.0 0.0 0.00 0.00 0.00 95 1016.5
20240521092644 56 229 2.0 7.0 0.00 0.00 0.00 95 1016.3
20240521091643 56 209 1.0 5.0 0.00 0.00 0.00 95 1016.3
20240521090643 56 235 1.0 4.0 0.00 0.00 0.00 95 1016.2
20240521085644 56 222 0.0 2.0 0.00 0.00 0.00 95 1016.2
20240521081643 56 204 0.0 3.0 0.00 0.00 0.00 95 1016.2
20240521080643 56 191 0.0 0.0 0.00 0.00 0.00 95 1016.2
20240521075643 56 235 0.0 1.0 0.00 0.00 0.00 95 1016.2
20240521074644 56 206 0.0 2.0 0.00 0.00 0.00 95 1016.3
20240521073643 56 216 0.0 1.0 0.00 0.00 0.00 95 1016.4
20240521072643 56 202 0.0 1.0 0.00 0.00 0.00 95 1016.4
20240521071643 56 166 0.0 1.0 0.00 0.00 0.00 95 1016.3
20240521064644 56 178 0.0 1.0 0.00 0.00 0.00 95 1016.1
20240521063643 56 222 0.0 3.0 0.00 0.00 0.00 95 1016.2
20240521061643 56 170 0.0 2.0 0.00 0.00 0.00 95 1016.3
20240521060644 56 178 0.0 1.0 0.00 0.00 0.00 95 1016.3
20240521055643 56 184 0.0 1.0 0.00 0.00 0.00 94 1016.5
20240521054643 56 0 0.0 0.0 0.00 0.00 0.00 94 1016.5
20240521053643 56 202 0.0 2.0 0.00 0.00 0.00 94 1016.7
20240521052643 56 211 0.0 1.0 0.00 0.00 0.00 94 1016.7
20240521050643 56 175 0.0 1.0 0.00 0.00 0.00 93 1017.0
20240521045733 56 184 0.0 1.0 0.00 0.00 0.00 93 1016.9
20240521045643 56 184 0.0 1.0 0.00 0.00 0.00 93 1016.9
20240521044643 56 171 0.0 2.0 0.00 0.00 0.00 93 1016.8
20240521042643 56 186 0.0 2.0 0.00 0.00 0.00 93 1016.9
20240521041643 57 165 0.0 2.0 0.00 0.00 0.00 92 1016.9
20240521040643 57 0 0.0 0.0 0.00 0.00 0.00 92 1017.0
20240521035643 57 160 0.0 2.0 0.00 0.00 0.00 91 1017.0
20240521034643 57 175 0.0 3.0 0.00 0.00 0.00 91 1017.0
20240521033643 57 184 0.0 1.0 0.00 0.00 0.00 90 1017.1
20240521032643 58 180 0.0 2.0 0.00 0.00 0.00 90 1017.2
20240521031643 58 0 0.0 0.0 0.00 0.00 0.00 90 1017.2
20240521030643 58 217 0.0 1.0 0.00 0.00 0.00 89 1017.2
20240521024643 59 217 0.0 2.0 0.00 0.00 0.00 89 1017.3
20240521022643 59 173 0.0 2.0 0.00 0.00 0.00 88 1017.2
20240521021643 59 228 1.0 4.0 0.00 0.00 0.00 87 1017.3
20240521015643 60 192 1.0 4.0 0.00 0.00 0.00 86 1017.0
20240521013643 60 193 0.0 2.0 0.00 0.00 0.00 85 1017.0
20240521012643 61 189 1.0 5.0 0.00 0.00 0.00 84 1016.9
20240521010643 61 190 0.0 3.0 0.00 0.00 0.00 82 1016.7
20240521005643 62 191 2.0 5.0 0.00 0.00 0.00 82 1016.5
20240521004643 62 192 2.0 6.0 0.00 0.00 0.00 81 1016.4
20240521003643 63 187 2.0 7.0 0.00 0.00 0.00 81 1016.3
20240521002643 63 189 2.0 5.0 0.00 0.00 0.00 79 1016.2
20240521001644 64 185 2.0 5.0 0.00 0.00 0.00 77 1016.2
20240521000643 65 191 2.0 6.0 0.00 0.00 0.00 75 1015.9
20240520234643 67 198 1.0 3.0 0.00 0.00 0.00 72 1015.7
20240520233643 68 189 1.0 4.0 0.00 0.00 0.00 71 1015.7
20240520232643 68 200 0.0 2.0 0.00 0.00 0.00 72 1015.7
20240520231643 68 225 2.0 7.0 0.00 0.00 0.00 70 1015.8
20240520230643 69 224 3.0 7.0 0.00 0.00 0.00 68 1015.8
20240520225644 70 220 3.0 8.0 0.00 0.00 0.00 66 1015.7
20240520224643 70 203 2.0 5.0 0.00 0.00 0.00 65 1015.7
20240520223643 71 194 2.0 6.0 0.00 0.00 0.00 62 1015.7
20240520221643 71 191 2.0 6.0 0.00 0.00 0.00 62 1015.8
20240520220643 72 220 2.0 10.0 0.00 0.00 0.00 61 1015.8
20240520214643 72 227 2.0 9.0 0.00 0.00 0.00 61 1015.8